Time,TemperatureF,DewpointF,PressureIn,WindDirection,WindDirectionDegrees,WindSpeedMPH,WindSpeedGustMPH,Humidity,HourlyPrecipIn,Conditions,Clouds,dailyrainin,SolarRadiationWatts/m^2,SoftwareType,DateUTC
2013-01-15 00:02:00,34.0,33.0,-100.00,NW,319,0.0,3.0,95,0.00,,,0.03,0.000000,,2013-01-15 08:02:00,
2013-01-15 00:12:00,34.0,33.0,-100.00,NW,319,0.0,3.0,95,0.00,,,0.03,0.000000,,2013-01-15 08:12:00,
2013-01-15 00:22:00,34.0,33.0,-100.00,NW,319,0.0,3.0,95,0.00,,,0.03,0.000000,,2013-01-15 08:22:00,
2013-01-15 00:32:00,34.0,33.0,-100.00,NW,319,0.0,3.0,95,0.00,,,0.03,0.000000,,2013-01-15 08:32:00,
2013-01-15 00:33:00,34.0,33.0,-100.00,NW,318,0.0,0.0,95,0.00,,,0.03,0.000000,,2013-01-15 08:33:00,
2013-01-15 00:53:00,34.0,33.0,-100.00,NW,318,0.0,0.0,95,0.00,,,0.03,0.000000,,2013-01-15 08:53:00,
2013-01-15 01:02:00,34.0,33.0,-100.00,NW,318,0.0,0.0,95,0.00,,,0.03,0.000000,,2013-01-15 09:02:00,
2013-01-15 01:12:00,34.0,33.0,-100.00,NW,318,0.0,0.0,95,0.00,,,0.03,0.000000,,2013-01-15 09:12:00,
2013-01-15 01:22:00,34.0,33.0,-100.00,NW,318,0.0,0.0,95,0.00,,,0.03,0.000000,,2013-01-15 09:22:00,
2013-01-15 01:52:00,35.0,34.0,-100.00,ENE,72,2.0,4.0,96,0.00,,,0.03,0.000000,,2013-01-15 09:52:00,
2013-01-15 02:02:00,35.0,34.0,-100.00,ENE,72,2.0,4.0,96,0.00,,,0.03,0.000000,,2013-01-15 10:02:00,
2013-01-15 02:11:00,35.0,34.0,-100.00,ENE,72,2.0,4.0,96,0.00,,,0.03,0.000000,,2013-01-15 10:11:00,
2013-01-15 02:22:00,35.0,34.0,-100.00,ENE,72,2.0,4.0,96,0.00,,,0.03,0.000000,,2013-01-15 10:22:00,
2013-01-15 02:32:00,35.0,34.0,-100.00,ENE,72,2.0,4.0,96,0.00,,,0.03,0.000000,,2013-01-15 10:32:00,
2013-01-15 02:52:00,32.0,31.0,-100.00,NNE,17,0.0,2.0,95,0.00,,,0.03,0.000000,,2013-01-15 10:52:00,
2013-01-15 03:02:00,32.0,31.0,-100.00,NNE,17,0.0,2.0,95,0.00,,,0.03,0.000000,,2013-01-15 11:02:00,
2013-01-15 03:12:00,32.0,31.0,-100.00,NNE,17,0.0,2.0,95,0.00,,,0.03,0.000000,,2013-01-15 11:12:00,
2013-01-15 03:22:00,32.0,31.0,-100.00,NNE,17,0.0,2.0,95,0.00,,,0.03,0.000000,,2013-01-15 11:22:00,
2013-01-15 03:32:00,32.0,31.0,-100.00,NNE,17,0.0,2.0,95,0.00,,,0.03,0.000000,,2013-01-15 11:32:00,
2013-01-15 03:53:00,30.0,29.0,-100.00,South,184,0.0,2.0,95,0.00,,,0.03,0.000000,,2013-01-15 11:53:00,
2013-01-15 04:02:00,30.0,29.0,-100.00,South,184,0.0,2.0,95,0.00,,,0.03,0.000000,,2013-01-15 12:02:00,
2013-01-15 04:12:00,30.0,29.0,-100.00,South,184,0.0,2.0,95,0.00,,,0.03,0.000000,,2013-01-15 12:12:00,
2013-01-15 04:22:00,30.0,29.0,-100.00,South,184,0.0,2.0,95,0.00,,,0.03,0.000000,,2013-01-15 12:22:00,
2013-01-15 04:32:00,30.0,29.0,-100.00,South,184,0.0,2.0,95,0.00,,,0.03,0.000000,,2013-01-15 12:32:00,
2013-01-15 04:53:00,29.0,28.0,-100.00,NE,46,0.0,1.0,95,0.00,,,0.03,0.000000,,2013-01-15 12:53:00,
2013-01-15 05:03:00,29.0,28.0,-100.00,NE,46,0.0,1.0,95,0.00,,,0.03,0.000000,,2013-01-15 13:03:00,
2013-01-15 05:12:00,29.0,28.0,-100.00,NE,46,0.0,1.0,95,0.00,,,0.03,0.000000,,2013-01-15 13:12:00,
2013-01-15 05:23:00,29.0,28.0,-100.00,NE,46,0.0,1.0,95,0.00,,,0.03,0.000000,,2013-01-15 13:23:00,
2013-01-15 05:32:00,29.0,28.0,-100.00,NE,46,0.0,1.0,95,0.00,,,0.03,0.000000,,2013-01-15 13:32:00,
2013-01-15 05:53:00,28.0,27.0,-100.00,South,184,0.0,1.0,94,0.00,,,0.03,0.000000,,2013-01-15 13:53:00,
2013-01-15 06:02:00,28.0,27.0,-100.00,South,184,0.0,1.0,94,0.00,,,0.03,0.000000,,2013-01-15 14:02:00,
2013-01-15 06:12:00,28.0,27.0,-100.00,South,184,0.0,1.0,94,0.00,,,0.03,0.000000,,2013-01-15 14:12:00,
2013-01-15 06:23:00,28.0,27.0,-100.00,South,184,0.0,1.0,94,0.00,,,0.03,0.000000,,2013-01-15 14:23:00,
2013-01-15 06:32:00,28.0,27.0,-100.00,South,184,0.0,1.0,94,0.00,,,0.03,0.000000,,2013-01-15 14:32:00,
2013-01-15 06:53:00,28.0,27.0,-100.00,West,274,0.0,2.0,94,-99.99,,,0.03,0.000000,,2013-01-15 14:53:00,
2013-01-15 07:03:00,28.0,27.0,-100.00,West,274,0.0,2.0,94,-99.99,,,0.03,0.000000,,2013-01-15 15:03:00,
2013-01-15 07:12:00,28.0,27.0,-100.00,West,274,0.0,2.0,94,-99.99,,,0.03,0.000000,,2013-01-15 15:12:00,
2013-01-15 07:23:00,28.0,27.0,-100.00,West,274,0.0,2.0,94,-99.99,,,0.03,0.000000,,2013-01-15 15:23:00,
2013-01-15 07:32:00,28.0,27.0,-100.00,West,274,0.0,2.0,94,-99.99,,,0.03,0.000000,,2013-01-15 15:32:00,
2013-01-15 07:53:00,27.0,26.0,-100.00,North,351,0.0,1.0,94,0.00,,,0.03,0.000000,,2013-01-15 15:53:00,
2013-01-15 08:02:00,27.0,26.0,-100.00,North,351,0.0,1.0,94,0.00,,,0.03,0.000000,,2013-01-15 16:02:00,
2013-01-15 08:12:00,27.0,26.0,-100.00,North,351,0.0,1.0,94,0.00,,,0.03,0.000000,,2013-01-15 16:12:00,
2013-01-15 08:22:00,27.0,26.0,-100.00,North,351,0.0,1.0,94,0.00,,,0.03,0.000000,,2013-01-15 16:22:00,
2013-01-15 08:32:00,27.0,26.0,-100.00,North,351,0.0,1.0,94,0.00,,,0.03,0.000000,,2013-01-15 16:32:00,
2013-01-15 08:33:00,27.0,26.0,-100.00,NW,305,0.0,2.0,94,-99.99,,,0.03,4.000000,,2013-01-15 16:33:00,
2013-01-15 08:53:00,27.0,26.0,-100.00,NW,305,0.0,2.0,94,-99.99,,,0.03,4.000000,,2013-01-15 16:53:00,
2013-01-15 09:03:00,27.0,26.0,-100.00,NW,305,0.0,2.0,94,-99.99,,,0.03,4.000000,,2013-01-15 17:03:00,
2013-01-15 09:12:00,27.0,26.0,-100.00,NW,305,0.0,2.0,94,-99.99,,,0.03,4.000000,,2013-01-15 17:12:00,
2013-01-15 09:22:00,27.0,26.0,-100.00,NW,305,0.0,2.0,94,-99.99,,,0.03,4.000000,,2013-01-15 17:22:00,
2013-01-15 09:33:00,34.0,32.0,-100.00,SSE,155,0.0,0.0,94,0.00,,,-99.99,107.000000,,2013-01-15 17:33:00,
2013-01-15 09:53:00,34.0,32.0,-100.00,SSE,155,0.0,0.0,94,0.00,,,-99.99,107.000000,,2013-01-15 17:53:00,
2013-01-15 10:03:00,34.0,32.0,-100.00,SSE,155,0.0,0.0,94,0.00,,,-99.99,107.000000,,2013-01-15 18:03:00,
2013-01-15 10:12:00,34.0,32.0,-100.00,SSE,155,0.0,0.0,94,0.00,,,-99.99,107.000000,,2013-01-15 18:12:00,
2013-01-15 10:22:00,34.0,32.0,-100.00,SSE,155,0.0,0.0,94,0.00,,,-99.99,107.000000,,2013-01-15 18:22:00,
2013-01-15 10:33:00,38.0,34.0,-100.00,SE,145,0.0,2.0,86,0.00,,,0.02,267.000000,,2013-01-15 18:33:00,
2013-01-15 10:53:00,38.0,34.0,-100.00,SE,145,0.0,2.0,86,0.00,,,0.02,267.000000,,2013-01-15 18:53:00,
2013-01-15 11:03:00,38.0,34.0,-100.00,SE,145,0.0,2.0,86,0.00,,,0.02,267.000000,,2013-01-15 19:03:00,
2013-01-15 11:12:00,38.0,34.0,-100.00,SE,145,0.0,2.0,86,0.00,,,0.02,267.000000,,2013-01-15 19:12:00,
2013-01-15 11:22:00,38.0,34.0,-100.00,SE,145,0.0,2.0,86,0.00,,,0.02,267.000000,,2013-01-15 19:22:00,
2013-01-15 11:33:00,39.0,35.0,-100.00,SE,146,0.0,3.0,87,0.00,,,0.02,185.000000,,2013-01-15 19:33:00,
2013-01-15 11:53:00,39.0,35.0,-100.00,SE,146,0.0,3.0,87,0.00,,,0.02,185.000000,,2013-01-15 19:53:00,
2013-01-15 12:03:00,39.0,35.0,-100.00,SE,146,0.0,3.0,87,0.00,,,0.02,185.000000,,2013-01-15 20:03:00,
2013-01-15 12:12:00,39.0,35.0,-100.00,SE,146,0.0,3.0,87,0.00,,,0.02,185.000000,,2013-01-15 20:12:00,
2013-01-15 12:22:00,39.0,35.0,-100.00,SE,146,0.0,3.0,87,0.00,,,0.02,185.000000,,2013-01-15 20:22:00,
2013-01-15 12:33:00,46.0,39.0,-100.00,WSW,256,0.0,3.0,76,0.00,,,0.01,368.000000,,2013-01-15 20:33:00,
2013-01-15 12:53:00,46.0,39.0,-100.00,WSW,256,0.0,3.0,76,0.00,,,0.01,368.000000,,2013-01-15 20:53:00,
2013-01-15 13:03:00,46.0,39.0,-100.00,WSW,256,0.0,3.0,76,0.00,,,0.01,368.000000,,2013-01-15 21:03:00,
2013-01-15 13:12:00,46.0,39.0,-100.00,WSW,256,0.0,3.0,76,0.00,,,0.01,368.000000,,2013-01-15 21:12:00,
2013-01-15 13:22:00,46.0,39.0,-100.00,WSW,256,0.0,3.0,76,0.00,,,0.01,368.000000,,2013-01-15 21:22:00,
2013-01-15 13:53:00,46.0,36.0,-100.00,WSW,253,2.0,4.0,69,0.00,,,0.01,341.000000,,2013-01-15 21:53:00,
2013-01-15 14:02:00,46.0,36.0,-100.00,WSW,253,2.0,4.0,69,0.00,,,0.01,341.000000,,2013-01-15 22:02:00,
2013-01-15 14:12:00,46.0,36.0,-100.00,WSW,253,2.0,4.0,69,0.00,,,0.01,341.000000,,2013-01-15 22:12:00,
2013-01-15 14:22:00,46.0,36.0,-100.00,WSW,253,2.0,4.0,69,0.00,,,0.01,341.000000,,2013-01-15 22:22:00,
2013-01-15 14:32:00,46.0,36.0,-100.00,WSW,253,2.0,4.0,69,0.00,,,0.01,341.000000,,2013-01-15 22:32:00,
2013-01-15 14:53:00,44.0,36.0,-100.00,NW,323,0.0,4.0,73,0.00,,,-99.99,131.000000,,2013-01-15 22:53:00,
2013-01-15 15:02:00,44.0,36.0,-100.00,NW,323,0.0,4.0,73,0.00,,,-99.99,131.000000,,2013-01-15 23:02:00,
2013-01-15 15:12:00,44.0,36.0,-100.00,NW,323,0.0,4.0,73,0.00,,,-99.99,131.000000,,2013-01-15 23:12:00,
2013-01-15 15:22:00,44.0,36.0,-100.00,NW,323,0.0,4.0,73,0.00,,,-99.99,131.000000,,2013-01-15 23:22:00,
2013-01-15 15:32:00,44.0,36.0,-100.00,NW,323,0.0,4.0,73,0.00,,,-99.99,131.000000,,2013-01-15 23:32:00,
2013-01-15 15:53:00,43.0,37.0,-100.00,West,269,2.0,6.0,78,0.00,,,0.00,52.000000,,2013-01-15 23:53:00,
2013-01-15 16:02:00,43.0,37.0,-100.00,West,269,2.0,6.0,78,0.00,,,0.00,52.000000,,2013-01-16 00:02:00,
2013-01-15 16:12:00,43.0,37.0,-100.00,West,269,2.0,6.0,78,0.00,,,0.00,52.000000,,2013-01-16 00:12:00,
2013-01-15 16:22:00,43.0,37.0,-100.00,West,269,2.0,6.0,78,0.00,,,0.00,52.000000,,2013-01-16 00:22:00,
2013-01-15 16:32:00,43.0,37.0,-100.00,West,269,2.0,6.0,78,0.00,,,0.00,52.000000,,2013-01-16 00:32:00,
2013-01-15 17:53:00,35.0,33.0,-100.00,ESE,115,0.0,2.0,92,-99.99,,,0.00,4.000000,,2013-01-16 01:53:00,
2013-01-15 18:02:00,35.0,33.0,-100.00,ESE,115,0.0,2.0,92,-99.99,,,0.00,4.000000,,2013-01-16 02:02:00,
2013-01-15 18:12:00,35.0,33.0,-100.00,ESE,115,0.0,2.0,92,-99.99,,,0.00,4.000000,,2013-01-16 02:12:00,
2013-01-15 18:22:00,35.0,33.0,-100.00,ESE,115,0.0,2.0,92,-99.99,,,0.00,4.000000,,2013-01-16 02:22:00,
2013-01-15 18:32:00,35.0,33.0,-100.00,ESE,115,0.0,2.0,92,-99.99,,,0.00,4.000000,,2013-01-16 02:32:00,
2013-01-15 18:53:00,33.0,31.0,-100.00,SE,127,0.0,1.0,94,0.00,,,0.00,0.000000,,2013-01-16 02:53:00,
2013-01-15 19:02:00,33.0,31.0,-100.00,SE,127,0.0,1.0,94,0.00,,,0.00,0.000000,,2013-01-16 03:02:00,
2013-01-15 19:11:00,33.0,31.0,-100.00,SE,127,0.0,1.0,94,0.00,,,0.00,0.000000,,2013-01-16 03:11:00,
2013-01-15 19:22:00,33.0,31.0,-100.00,SE,127,0.0,1.0,94,0.00,,,0.00,0.000000,,2013-01-16 03:22:00,
2013-01-15 19:32:00,33.0,31.0,-100.00,SE,127,0.0,1.0,94,0.00,,,0.00,0.000000,,2013-01-16 03:32:00,
2013-01-15 19:53:00,33.0,32.0,-100.00,WNW,286,0.0,2.0,95,0.00,,,0.00,0.000000,,2013-01-16 03:53:00,
2013-01-15 20:02:00,33.0,32.0,-100.00,WNW,286,0.0,2.0,95,0.00,,,0.00,0.000000,,2013-01-16 04:02:00,
2013-01-15 20:12:00,33.0,32.0,-100.00,WNW,286,0.0,2.0,95,0.00,,,0.00,0.000000,,2013-01-16 04:12:00,
2013-01-15 20:22:00,33.0,32.0,-100.00,WNW,286,0.0,2.0,95,0.00,,,0.00,0.000000,,2013-01-16 04:22:00,
2013-01-15 20:32:00,33.0,32.0,-100.00,WNW,286,0.0,2.0,95,0.00,,,0.00,0.000000,,2013-01-16 04:32:00,
2013-01-15 20:52:00,34.0,33.0,-100.00,NNE,32,1.0,4.0,95,0.00,,,0.00,0.000000,,2013-01-16 04:52:00,
2013-01-15 21:03:00,34.0,33.0,-100.00,NNE,32,1.0,4.0,95,0.00,,,0.00,0.000000,,2013-01-16 05:03:00,
2013-01-15 21:12:00,34.0,33.0,-100.00,NNE,32,1.0,4.0,95,0.00,,,0.00,0.000000,,2013-01-16 05:12:00,
2013-01-15 21:22:00,34.0,33.0,-100.00,NNE,32,1.0,4.0,95,0.00,,,0.00,0.000000,,2013-01-16 05:22:00,
2013-01-15 21:32:00,34.0,33.0,-100.00,NNE,32,1.0,4.0,95,0.00,,,0.00,0.000000,,2013-01-16 05:32:00,
2013-01-15 21:53:00,33.0,31.0,-100.00,NNW,341,1.0,3.0,94,0.00,,,0.00,0.000000,,2013-01-16 05:53:00,
2013-01-15 22:02:00,33.0,31.0,-100.00,NNW,341,1.0,3.0,94,0.00,,,0.00,0.000000,,2013-01-16 06:02:00,
2013-01-15 22:12:00,33.0,31.0,-100.00,NNW,341,1.0,3.0,94,0.00,,,0.00,0.000000,,2013-01-16 06:12:00,
2013-01-15 22:22:00,33.0,31.0,-100.00,NNW,341,1.0,3.0,94,0.00,,,0.00,0.000000,,2013-01-16 06:22:00,
2013-01-15 22:32:00,33.0,31.0,-100.00,NNW,341,1.0,3.0,94,0.00,,,0.00,0.000000,,2013-01-16 06:32:00,
2013-01-15 22:53:00,32.0,31.0,-100.00,NNW,333,3.0,3.0,95,0.00,,,0.00,0.000000,,2013-01-16 06:53:00,
2013-01-15 23:02:00,32.0,31.0,-100.00,NNW,333,3.0,3.0,95,0.00,,,0.00,0.000000,,2013-01-16 07:02:00,
2013-01-15 23:11:00,32.0,31.0,-100.00,NNW,333,3.0,3.0,95,0.00,,,0.00,0.000000,,2013-01-16 07:11:00,
2013-01-15 23:22:00,32.0,31.0,-100.00,NNW,333,3.0,3.0,95,0.00,,,0.00,0.000000,,2013-01-16 07:22:00,
2013-01-15 23:32:00,32.0,31.0,-100.00,NNW,333,3.0,3.0,95,0.00,,,0.00,0.000000,,2013-01-16 07:32:00,
2013-01-15 23:52:00,32.0,31.0,-100.00,NNW,345,2.0,5.0,95,0.00,,,0.00,0.000000,,2013-01-16 07:52:00,